GFSNW_925_temp_000.txt.gz
Temp
15 16 16 17 18 20 20 17 15 21 20 16 12 16 20 19 21 20 20 19 19 19 19 18 18 18 18 19 19 17 17 13 12 16 17 18 18 17 15 11 14 11 11 16
15 15 16 17 17 18 18 14 15 20 20 11 9 19 19 18 20 19 19 19 19 19 18 17 18 19 19 19 18 18 17 12 11 15 16 15 16 17 16 14 10 12 9 12
15 15 16 17 17 18 18 13 12 12 12 13 17 18 19 19 19 19 20 20 19 18 17 17 18 17 18 18 18 16 15 14 13 12 14 14 14 16 16 14 8 13 14 15
15 15 16 17 18 19 19 12 13 14 11 13 16 17 19 18 18 20 19 18 17 18 15 15 16 16 15 16 15 17 14 13 14 13 14 15 15 15 15 14 13 11 13 14
14 14 15 17 18 19 19 13 13 12 13 16 17 13 18 19 19 19 18 17 16 16 16 16 16 16 15 15 16 15 13 11 12 13 14 13 13 14 13 13 13 13 13 14
13 14 14 16 17 18 17 16 16 12 10 12 11 12 18 18 18 18 18 18 16 13 16 16 16 15 15 14 14 12 13 8 8 13 10 10 12 12 13 14 14 13 11 12
13 13 14 15 16 17 16 16 14 9 9 7 12 17 18 17 18 17 18 17 13 15 16 14 12 11 11 11 11 12 8 7 7 9 10 12 14 14 14 14 13 14 13 12
12 13 14 14 15 16 16 16 15 7 7 7 12 17 17 16 16 17 18 17 15 13 10 9 8 8 9 10 13 12 11 8 9 9 11 12 13 14 15 14 13 12 11 12
11 12 13 14 15 15 15 15 15 11 7 9 15 15 16 10 12 11 16 15 14 9 6 6 6 7 9 12 13 11 8 6 7 9 10 12 12 14 15 15 11 12 12 11
11 11 12 13 14 14 15 14 15 14 7 11 15 12 12 13 10 11 9 14 10 9 7 8 9 8 11 10 8 8 6 7 7 4 7 8 11 13 14 10 12 12 11 11
11 11 11 12 12 13 14 13 14 15 8 10 15 16 15 13 10 8 11 11 8 6 8 8 7 10 8 9 11 10 10 8 9 7 9 10 13 13 11 11 10 11 11 10
11 11 12 12 12 12 13 13 13 14 13 11 13 14 14 15 15 11 10 11 10 7 7 7 4 8 8 6 11 12 11 10 9 9 9 11 12 13 11 11 12 10 10 10
11 11 11 11 12 12 12 12 12 13 6 8 10 12 14 15 15 15 9 5 11 9 8 6 7 8 7 10 9 9 11 12 9 10 13 12 12 13 13 11 10 9 9 8
10 11 11 11 11 11 11 11 11 12 7 6 8 12 13 15 15 15 14 14 13 12 8 6 7 8 9 8 10 10 11 10 10 10 11 12 12 12 11 11 10 9 8 8
10 11 10 10 10 10 10 10 10 11 11 7 6 10 13 14 14 14 14 13 10 6 7 6 8 6 7 6 6 8 10 12 10 11 12 11 12 10 10 9 7 6 6 7
9 10 10 9 9 9 9 7 10 10 10 6 8 8 9 12 13 12 11 11 9 9 7 6 7 9 8 8 9 11 11 12 13 12 12 11 10 9 8 8 7 8 8 9
9 9 9 9 9 9 8 8 9 9 9 4 7 6 5 8 9 8 8 9 8 9 8 7 7 7 9 6 10 12 12 11 12 12 10 9 8 7 8 9 10 10 9 9
8 8 8 8 8 7 7 7 8 9 9 5 7 7 6 7 5 5 4 4 5 7 8 6 7 6 6 8 11 10 10 11 10 9 8 8 7 8 9 9 8 7 6 6
6 7 7 6 6 6 6 7 8 7 7 6 4 7 8 6 5 4 3 4 6 5 5 6 7 6 8 8 9 9 9 10 9 8 7 7 7 7 7 7 7 6 5 4
6 6 6 3 5 5 6 6 3 3 2 3 5 4 6 7 4 4 4 3 5 6 6 6 6 8 10 11 11 10 9 8 7 6 7 6 6 5 5 5 4 3 2 2
6 4 3 4 5 5 4 3 5 4 4 3 3 4 6 5 6 5 3 5 4 6 3 6 3 6 6 8 8 7 7 7 7 7 7 6 5 4 3 2 2 2 1 0
6 5 5 5 5 3 5 5 4 4 4 3 4 4 5 4 5 4 4 4 4 5 2 4 6 4 6 6 6 5 5 6 6 6 5 5 5 4 3 1 1 1 1 0
6 5 3 5 3 5 5 5 5 4 4 4 4 4 3 3 3 3 3 4 4 -0 5 6 2 5 6 6 6 6 6 6 5 5 5 4 5 5 2 1 1 0 -0 1
2 2 3 4 3 3 2 3 3 3 3 3 3 3 3 1 -0 2 3 2 0 2 4 2 2 4 4 4 4 4 4 2 1 3 4 4 3 2 2 -0 -1 -1 -1 0
1 1 2 1 2 1 2 2 3 2 2 2 2 1 1 -1 -1 -2 -2 -1 4 4 1 -0 0 3 3 4 3 3 0 -0 -0 3 2 2 2 0 1 3 2 1 0 -1
-0 -0 -1 -0 2 2 2 2 3 2 1 -1 -0 -0 -1 -1 -2 -1 -2 -1 0 -0 -3 -2 -0 3 2 2 1 2 2 2 3 3 3 2 2 1 1 1 0 -0 -1 -1
-1 -2 -0 -2 -0 -2 2 -0 2 3 2 -1 -2 -1 1 -1 -3 -2 0 -1 -1 -2 -1 -1 0 2 2 1 2 2 3 2 2 2 2 2 3 2 -1 -1 -0 1 0 -0

GFSNW_925_temp_006.txt.gz
Temp
14 15 15 17 18 20 20 16 15 18 18 14 9 14 18 17 17 17 18 17 18 18 17 17 17 17 17 16 17 16 15 11 12 16 16 15 15 15 13 10 12 9 8 11
14 14 15 16 18 19 19 13 14 18 18 12 8 16 17 17 18 17 18 18 17 16 16 16 17 17 16 15 16 16 15 11 11 14 14 14 15 15 13 10 9 11 9 12
14 14 15 16 18 18 19 12 12 11 10 10 15 16 17 17 17 16 15 16 16 16 15 14 16 16 16 14 15 12 13 12 13 11 14 13 13 14 13 12 11 11 11 14
14 14 15 16 18 18 18 10 12 12 11 11 14 15 17 17 18 17 15 16 16 16 14 14 14 15 14 15 13 13 13 13 12 12 12 12 13 12 12 11 11 12 13 12
13 14 15 16 17 18 17 12 12 10 10 13 15 11 17 17 17 17 17 15 16 16 15 16 16 15 14 14 15 14 10 10 11 10 11 10 10 11 11 11 11 11 11 11
13 13 14 16 17 18 15 12 13 11 7 10 11 11 16 17 16 15 16 14 14 14 15 14 15 13 14 14 14 12 11 7 8 9 9 8 10 12 11 12 12 12 12 13
12 13 14 15 16 17 17 14 13 9 9 5 10 15 16 16 16 15 15 14 12 15 13 13 11 10 9 11 11 11 7 6 6 7 10 11 13 14 14 12 12 12 11 10
12 12 13 14 15 16 17 15 14 8 6 6 11 15 14 15 14 15 15 14 12 11 10 8 8 8 8 8 8 9 8 7 8 11 11 11 13 14 15 12 11 13 12 11
11 12 13 14 15 15 16 14 15 11 7 9 14 13 14 9 10 10 13 11 10 8 4 6 7 8 9 11 11 7 7 4 6 8 10 11 12 13 13 12 10 12 12 12
11 11 12 13 14 15 15 14 15 14 7 10 12 10 11 10 8 9 8 12 9 8 5 7 5 8 9 9 7 7 6 7 10 10 9 9 10 11 12 11 11 12 11 11
11 11 11 12 13 14 15 13 14 15 6 9 13 13 11 10 9 8 9 9 6 7 8 6 7 3 7 8 9 9 9 7 5 7 8 8 10 12 12 11 11 11 10 9
10 11 11 11 12 13 14 13 14 14 13 11 12 14 14 14 14 9 7 10 9 6 6 6 4 5 5 7 10 9 9 9 10 10 9 10 12 12 12 11 10 9 8 6
10 10 11 11 11 12 13 13 13 14 4 8 11 12 14 14 15 15 9 4 9 7 7 4 5 6 5 9 9 7 10 10 9 10 11 11 12 12 10 8 7 6 5 5
10 10 10 10 11 12 12 13 12 13 5 5 8 12 13 13 14 14 14 13 9 7 4 4 5 8 9 8 10 9 9 10 10 9 11 10 10 7 7 6 6 6 6 6
10 10 10 10 10 11 11 12 12 12 11 6 6 9 12 13 13 13 12 12 8 6 6 6 7 5 7 5 6 8 9 9 8 11 11 10 10 8 7 7 6 6 6 5
10 10 10 9 9 10 11 7 11 11 12 6 7 7 8 9 10 10 10 9 7 7 7 6 6 9 8 7 8 10 11 11 12 11 11 10 8 7 7 6 6 7 6 5
9 9 9 9 9 10 10 8 10 10 11 4 6 6 4 7 7 5 6 7 6 7 7 6 6 7 9 6 10 11 10 10 10 10 9 7 6 6 7 7 6 6 6 6
9 9 9 9 9 9 8 10 10 9 10 5 7 7 5 6 4 5 3 4 5 7 7 5 6 6 5 8 9 9 9 9 8 7 6 5 6 7 6 6 5 3 3 3
8 8 8 7 7 7 7 8 8 9 8 6 4 7 8 5 4 3 2 3 6 4 5 5 6 6 8 8 6 6 6 7 7 5 5 5 5 5 4 4 3 2 2 1
6 7 6 3 5 6 7 7 5 4 3 3 5 4 6 7 4 4 5 3 5 7 5 4 5 6 7 5 5 4 4 4 5 5 5 5 5 3 3 3 3 2 1 1
6 4 3 4 5 5 4 4 5 4 5 3 4 4 6 4 6 6 3 5 4 4 2 6 5 4 5 3 3 3 4 5 5 6 5 5 4 3 2 1 3 3 2 0
6 5 5 5 5 3 6 5 4 5 5 3 4 4 4 3 4 4 3 4 3 5 1 4 2 3 4 3 4 4 4 4 4 4 4 4 3 3 2 2 2 2 2 1
7 5 3 5 3 6 6 5 5 5 3 3 3 4 3 3 3 3 3 3 2 -1 2 2 1 3 3 3 3 3 4 5 4 3 3 3 3 3 2 1 2 1 0 1
2 3 5 4 4 4 4 4 1 0 3 3 3 3 3 1 2 2 1 0 -0 3 2 1 -0 3 3 2 2 2 2 2 -0 1 2 2 1 0 1 1 1 -0 -1 0
2 1 3 3 1 1 2 2 3 2 2 2 2 2 1 1 0 0 -1 2 2 2 1 -2 -1 2 2 2 2 1 -1 -1 -1 1 1 0 1 -0 -1 1 0 -0 -0 -0
0 -1 -2 0 2 2 2 2 3 2 1 1 -0 -2 0 -1 -2 -1 0 -0 -0 -1 -5 -3 -2 2 2 1 1 1 1 1 0 0 1 0 0 -1 -1 -1 -1 -0 -0 -1
-2 -3 -0 -5 -3 -1 -1 2 2 2 2 2 0 -1 0 -3 -4 -2 -2 -3 -3 -4 -4 -3 -1 1 1 1 1 1 1 0 1 1 1 0 0 -1 -2 -3 -1 -1 -1 -0

GFSNW_925_temp_009.txt.gz
Temp
14 15 15 16 17 19 19 15 16 17 17 15 10 14 17 17 17 17 17 17 17 17 16 16 17 16 16 15 16 16 15 13 15 17 15 15 16 16 15 15 15 13 12 15
14 14 15 16 17 18 19 14 14 17 17 13 10 15 16 16 18 16 17 17 16 15 15 16 16 16 15 14 16 16 15 14 15 16 16 16 16 15 13 12 12 14 13 16
14 14 15 16 17 18 18 12 13 12 10 11 14 15 16 17 16 15 15 16 16 15 15 14 15 15 15 14 14 12 14 13 14 16 16 15 14 14 13 14 13 14 14 16
13 14 15 16 17 18 18 10 12 12 12 13 14 15 16 16 17 16 15 16 16 16 14 14 14 15 15 14 13 13 14 14 13 13 14 13 14 14 14 13 14 13 15 15
13 14 15 16 17 18 17 13 12 10 10 13 15 12 16 16 16 17 16 15 15 15 15 15 15 15 14 15 14 13 11 13 11 11 11 11 11 13 12 13 13 13 14 13
13 13 14 16 17 18 15 11 12 12 7 10 12 12 15 16 15 15 15 14 14 14 15 15 15 13 12 14 14 13 12 11 10 12 10 10 12 13 12 13 13 14 14 16
12 13 14 15 16 17 17 14 13 10 10 8 11 14 15 14 16 15 14 14 12 14 12 12 11 10 10 11 11 11 8 9 9 11 11 13 16 14 14 14 14 14 13 13
12 12 13 14 15 16 17 15 13 9 7 7 11 14 13 13 13 13 14 12 11 11 11 10 10 10 10 8 8 9 9 8 9 10 12 12 14 15 14 13 14 13 12 12
11 12 13 13 15 15 16 14 15 10 7 10 13 13 13 11 10 11 11 10 9 9 7 9 10 12 10 13 11 8 8 7 10 9 11 12 13 13 12 12 13 12 12 12
11 11 12 13 14 15 16 14 15 14 8 10 12 12 12 10 10 10 9 11 10 9 7 8 10 12 9 12 9 8 7 8 10 11 10 11 12 11 12 12 11 11 12 12
10 11 11 12 13 14 15 13 15 15 7 10 12 12 11 10 10 10 10 10 8 7 8 8 8 8 9 10 10 10 11 11 9 8 9 10 11 12 12 12 10 10 10 9
10 11 11 12 12 13 14 14 14 15 12 11 12 13 13 14 13 10 7 11 9 8 7 6 6 7 5 8 11 9 11 11 11 10 11 11 12 13 11 10 9 7 7 6
10 10 11 11 12 13 14 13 14 14 5 9 11 11 12 13 14 14 11 6 9 8 8 6 6 9 7 9 8 8 10 10 10 10 12 12 12 12 9 8 7 7 7 6
10 10 10 11 11 12 13 13 13 14 5 5 9 11 12 12 13 13 13 11 9 6 6 5 6 7 9 8 10 10 11 10 10 9 12 12 10 10 8 7 7 6 7 7
10 9 10 10 11 11 12 12 12 13 12 7 6 9 10 11 12 12 12 11 7 7 7 6 8 6 7 6 7 8 10 11 10 11 12 10 10 9 7 7 7 7 7 7
10 9 10 10 10 10 11 8 11 12 12 5 7 6 6 8 9 10 9 9 7 7 8 6 7 8 9 8 8 10 11 11 12 11 10 9 7 7 7 7 7 7 6 6
9 9 9 9 10 10 10 8 10 10 12 4 6 6 4 6 6 4 6 6 7 8 7 6 7 7 9 6 9 11 10 10 10 9 9 7 7 7 7 7 6 6 5 5
9 9 9 9 9 9 9 10 9 10 9 6 6 7 5 6 4 5 3 5 6 7 8 5 6 6 6 8 9 7 8 8 7 6 6 7 6 6 6 6 6 5 5 4
9 9 8 7 8 7 8 9 9 9 8 7 5 7 8 5 4 3 3 4 6 5 5 5 6 7 8 7 6 6 5 6 5 5 6 6 6 6 6 5 5 5 5 4
8 7 6 4 5 7 7 7 5 4 3 4 5 5 7 7 4 5 6 4 6 7 6 5 5 7 6 5 5 5 5 6 6 6 6 6 5 5 4 4 4 3 3 2
6 3 3 4 5 5 4 4 5 4 5 4 4 4 6 4 6 6 3 5 5 6 5 6 6 6 5 4 4 4 4 4 5 5 5 4 3 3 3 2 2 1 1 1
6 5 5 5 5 4 5 5 4 5 6 4 4 4 5 3 4 5 3 5 4 4 3 5 6 5 4 4 4 4 4 4 4 4 3 2 2 2 1 1 1 1 1 0
5 4 3 5 3 6 6 6 5 6 4 3 3 4 3 3 3 3 4 4 4 1 3 4 4 4 3 3 3 4 4 4 3 2 3 2 2 2 1 -0 0 0 -1 -1
3 4 5 5 5 5 3 3 3 2 3 3 3 3 3 1 3 2 3 1 1 4 3 3 3 4 4 3 2 3 3 1 -0 1 1 1 0 -0 1 0 -0 -1 -2 -2
2 3 4 4 1 2 2 2 3 2 2 2 2 2 3 1 2 1 1 2 3 3 3 2 2 3 3 3 3 3 -0 -1 -1 1 0 0 0 -1 -1 -0 -1 -2 -2 -2
1 -1 0 0 1 2 3 3 3 2 1 1 1 1 2 2 1 1 1 2 2 2 -0 0 1 2 2 2 2 1 1 1 0 0 0 0 -0 -1 -1 -1 -1 -1 -1 -2
-1 -2 -2 -2 -2 1 2 2 2 2 2 2 1 2 3 -1 -0 0 -0 -0 1 -1 -0 -1 -0 2 2 2 1 1 1 0 1 1 0 -0 0 -1 -2 -3 -1 -0 -2 -3

GFSNW_925_temp_012.txt.gz
Temp
14 15 16 17 19 19 19 18 21 17 18 22 20 21 21 19 21 21 21 21 21 21 20 20 20 20 20 19 19 20 18 19 19 20 19 19 20 20 20 19 18 18 16 19
14 15 16 17 17 18 18 22 21 17 17 20 18 19 19 20 21 20 21 20 20 20 20 19 20 19 18 18 20 19 19 19 19 20 19 19 19 19 18 17 16 17 16 19
14 15 16 17 17 18 19 21 19 20 20 18 21 21 20 20 19 19 20 19 20 20 20 19 19 19 18 17 18 12 17 18 19 20 20 19 18 19 19 18 16 17 18 19
14 15 16 17 17 18 18 19 19 17 19 19 21 21 20 20 20 19 20 20 21 20 18 19 18 19 18 17 14 17 18 18 18 18 18 18 18 18 18 18 18 16 18 19
14 14 15 17 18 18 17 20 19 17 17 18 20 18 20 20 19 20 20 20 19 20 19 20 18 19 19 19 18 18 17 17 14 15 16 17 17 18 18 18 18 18 18 18
13 14 15 16 18 18 18 13 14 20 12 17 19 19 20 20 20 18 20 20 20 17 19 20 18 18 17 18 18 17 16 15 14 14 14 14 14 17 18 18 18 17 16 18
13 14 14 16 17 18 17 14 17 18 16 17 19 19 19 19 19 19 18 19 17 17 16 16 17 16 15 16 15 15 11 13 11 13 12 14 17 19 18 17 18 19 18 17
12 13 14 15 16 17 18 15 16 16 11 16 17 19 18 18 18 18 18 16 15 17 17 16 12 15 11 12 13 13 14 12 11 12 14 16 17 17 17 16 16 16 16 15
11 12 13 14 15 16 17 15 15 16 11 16 18 18 19 18 17 16 14 14 13 16 14 13 13 16 16 17 15 11 12 11 13 12 12 13 17 16 16 16 15 15 13 12
11 11 13 14 14 15 16 15 15 17 15 15 16 18 18 17 17 17 15 15 13 14 11 13 13 16 14 16 13 11 10 10 11 12 12 14 16 15 15 13 13 13 11 10
11 11 12 13 14 14 15 14 15 15 14 15 14 15 16 16 18 17 14 15 13 12 10 11 12 11 14 14 15 14 15 13 11 11 11 11 15 15 12 14 13 10 9 9
11 11 11 12 13 14 15 14 15 15 16 15 11 12 12 14 18 17 14 16 15 16 13 10 9 9 8 12 14 15 14 15 15 14 15 17 17 16 15 13 12 8 9 10
10 10 11 11 12 14 14 14 15 15 11 14 14 15 12 13 13 14 16 13 15 14 13 12 10 10 12 10 12 12 15 15 13 13 15 16 16 16 13 10 8 9 10 10
10 10 11 11 12 13 13 14 14 14 9 8 13 11 12 11 12 13 14 13 11 11 12 8 8 10 14 10 15 14 16 15 14 14 14 15 15 12 11 8 7 8 10 10
9 10 10 11 11 12 13 13 13 13 14 12 12 10 9 10 11 13 13 13 13 10 9 6 9 12 11 9 9 11 15 15 12 11 13 11 12 10 9 8 9 9 9 10
9 10 10 10 11 11 12 13 12 13 13 11 12 10 10 10 11 12 12 13 12 11 11 10 11 13 13 8 10 13 15 15 15 12 10 11 10 9 9 10 9 9 9 9
10 10 10 10 10 11 12 13 10 11 13 9 10 9 9 7 9 9 10 9 11 11 11 9 11 12 11 9 9 13 13 10 11 11 10 9 10 9 9 9 9 9 9 9
9 10 9 9 10 10 10 10 10 11 9 8 8 8 8 8 7 7 6 7 9 9 9 7 9 8 9 9 11 10 10 9 8 9 10 10 9 9 10 9 9 9 9 8
9 9 9 8 8 8 9 10 10 10 10 9 7 8 9 8 6 5 6 7 8 8 7 7 8 8 9 9 8 8 8 9 8 9 10 9 9 9 9 9 9 8 7 7
9 8 7 4 6 8 7 8 8 6 6 6 8 9 9 9 6 6 7 6 8 8 7 7 6 7 6 7 7 8 8 8 9 8 8 8 8 8 8 7 6 6 5 4
6 4 3 4 5 6 5 5 6 5 5 5 5 5 7 6 8 8 5 6 6 8 8 8 8 9 8 7 7 8 8 8 8 8 7 7 7 6 6 5 5 4 3 3
5 4 4 5 5 3 5 5 4 5 7 4 5 5 5 4 5 6 4 7 6 8 7 6 8 10 8 8 7 7 7 7 7 6 6 6 5 5 4 4 3 2 1 -0
5 4 2 4 3 6 7 7 7 6 5 4 4 5 4 4 5 4 6 7 7 5 5 8 9 8 8 8 7 7 7 6 4 5 5 5 4 3 2 1 1 0 0 -0
4 4 5 6 6 6 6 7 6 4 5 4 4 4 5 3 4 4 6 5 5 6 6 7 8 8 8 7 7 7 7 4 3 4 4 2 1 1 1 1 0 -1 -1 -1
3 4 5 5 3 4 3 3 4 3 4 4 4 4 6 4 4 4 4 4 6 7 8 7 8 7 7 6 5 6 4 2 2 3 3 1 1 0 -0 0 -0 -1 -1 -1
3 3 3 2 4 4 3 4 3 3 2 2 4 4 5 4 5 4 5 6 7 7 6 6 6 6 5 5 5 4 4 2 2 2 2 1 0 -0 0 -0 -1 -1 -1 -2
3 2 1 2 3 5 4 4 3 2 3 4 5 5 5 2 4 4 5 5 6 5 5 6 5 5 5 5 4 2 2 2 2 2 2 1 0 -1 -1 -1 1 -1 -1 -2